Location: *
(45.0500°N, 12.0500°E)
Time: 09:20:46
(UTC+00:00)

BREEZE M DEB (TANK) - Pass Details

Date: 09 April 2020
Orbit: 313 x 13666 km, 49.6° (Epoch: 23 May)

Event Time Altitude Azimuth Distance (km) Brightness Sun altitude
Rises 20:42:13 0° 265° (W) 5,081 8.2 -27.1°
Reaches altitude 10° 20:47:03 10° 271° (W) 2,839 6.9 -27.6°
Enters shadow 20:51:30 38° 310° (NW) 846 4.2 -28.1°
